Theta_e
316 315 315 315 317 320 319 318 319 321 323 323 322 323 322 320 322 323 321 320 319 318 319 321 322 323 324 325 324 322 322 321 322 323 323 323 322 321 319 320 320 319
316 315 315 316 316 317 317 316 319 322 323 323 323 324 322 319 321 323 322 320 317 316 320 322 323 323 323 323 323 323 322 322 323 324 323 322 320 317 316 316 317 317
319 316 316 317 317 315 314 315 318 321 322 323 323 323 322 318 318 319 319 317 317 318 320 322 322 323 322 322 321 321 321 322 323 323 323 322 318 316 315 315 315 316
322 320 319 319 319 315 313 314 316 318 320 321 322 321 320 316 313 314 315 315 318 319 320 322 322 322 322 321 319 318 318 318 319 320 320 319 317 315 314 313 312 312
323 321 321 321 319 315 313 313 314 316 316 317 319 317 315 314 312 313 313 314 317 319 319 319 320 321 321 320 317 316 315 314 313 312 312 312 312 311 310 310 309 309
324 322 322 322 320 317 314 311 311 312 312 311 313 313 311 311 311 310 309 308 312 316 317 316 317 317 318 316 314 313 311 308 307 306 306 308 310 311 311 311 311 309
324 322 322 322 320 318 312 308 309 311 310 308 309 310 308 309 309 309 308 306 307 311 314 314 313 312 312 311 309 308 306 306 306 307 307 309 311 312 312 313 314 313
323 322 322 321 321 318 310 309 312 314 313 309 307 307 308 310 311 309 309 308 307 308 309 310 310 309 309 307 307 307 308 309 311 311 311 313 313 313 313 314 314 314
323 322 322 322 321 316 310 311 316 317 313 309 306 306 308 312 312 310 310 311 310 309 308 308 309 310 309 308 310 312 312 313 313 313 314 315 314 313 312 312 313 312
324 324 323 322 319 313 310 312 316 317 313 308 306 305 308 312 313 312 312 312 312 311 310 309 311 311 309 309 312 314 313 314 313 313 313 313 312 311 310 311 311 310
325 325 323 322 318 312 311 313 317 318 312 306 305 306 310 315 314 313 313 314 313 313 312 312 312 311 309 309 312 313 313 313 312 312 312 311 311 311 311 310 310 310
325 324 323 322 320 317 317 318 320 318 309 305 307 309 313 316 314 313 315 315 315 314 314 313 312 311 310 309 309 311 312 312 312 311 311 311 311 311 311 311 311 310
325 323 322 322 321 322 322 321 322 320 312 309 312 314 315 316 315 314 315 315 315 315 315 315 312 311 311 310 308 309 310 311 311 312 311 312 313 313 313 312 312 311
325 323 323 322 322 322 323 322 322 322 318 316 317 317 316 316 315 314 314 315 315 315 316 315 313 311 311 310 309 308 308 309 310 311 311 311 313 314 314 313 313 314
326 325 324 324 323 323 323 322 322 322 322 320 319 319 319 318 317 316 315 315 314 314 314 314 312 312 311 309 309 309 309 309 310 311 310 311 312 313 313 313 313 315
325 325 325 325 324 324 323 323 322 322 322 320 319 320 320 319 319 318 317 316 315 314 314 314 313 313 312 312 311 310 310 310 309 310 310 310 310 311 312 313 313 315
324 324 324 324 324 323 323 323 323 322 321 320 319 320 320 320 319 319 318 318 317 317 315 315 315 314 314 314 313 313 312 311 310 310 310 310 311 312 313 314 315 316
322 322 323 323 323 323 323 323 323 322 321 321 320 319 320 320 320 320 320 319 319 318 318 317 317 315 315 315 315 314 314 313 313 313 312 311 312 314 315 316 316 316
319 320 320 321 322 321 322 322 322 322 322 321 321 321 320 320 320 320 320 319 319 319 319 319 318 317 316 316 315 315 315 315 315 315 315 314 314 315 316 316 317 317
315 315 316 318 319 319 320 320 320 320 320 321 321 321 321 321 321 321 321 320 319 318 319 319 319 319 318 317 316 316 316 317 316 316 316 316 316 316 316 317 317 318
314 314 314 315 316 316 317 318 319 319 319 320 320 320 320 319 320 321 321 321 320 319 319 319 319 319 318 318 318 317 317 317 318 318 318 317 317 318 318 318 318 319
313 314 315 315 315 316 316 317 317 318 319 319 319 319 319 318 318 318 319 320 320 320 320 320 320 320 319 319 319 319 318 318 318 318 318 318 318 318 317 317 318 318
309 311 312 313 314 315 315 315 316 316 317 318 318 318 318 317 318 318 318 318 318 319 319 320 320 321 320 320 320 320 320 319 318 317 317 318 318 317 316 317 318 318
305 306 307 309 309 311 312 312 313 314 315 316 317 317 317 316 316 315 315 315 315 316 318 319 319 319 320 319 319 320 319 319 319 318 317 316 318 318 317 317 317 318
301 302 303 304 305 307 308 309 309 310 311 312 312 313 313 314 314 314 314 315 315 316 317 318 319 318 318 318 317 318 318 318 318 318 318 317 317 317 317 317 317 317
300 300 300 300 301 302 303 304 304 304 304 305 306 307 308 309 311 312 313 314 314 315 316 317 318 318 317 316 316 316 317 317 317 317 317 317 316 316 317 316 315 315
Wind_Speed
15 13 12 12 12 10 8 8 9 9 8 6 7 7 4 6 10 9 9 8 6 6 8 10 11 10 10 10 10 11 11 12 14 16 18 19 19 17 16 15 14 14
15 14 13 11 11 10 8 9 10 10 8 8 9 8 5 5 9 9 9 7 5 8 13 13 12 12 12 11 12 12 13 15 17 17 19 20 19 16 16 16 16 16
14 13 12 9 8 8 7 8 9 8 8 9 8 7 5 5 8 9 8 8 7 11 16 14 12 13 12 10 11 13 14 15 17 16 17 18 18 16 16 16 17 16
13 12 10 8 7 7 6 7 7 6 7 8 7 6 5 4 7 9 8 8 10 13 16 15 13 14 12 10 12 14 14 14 15 16 17 18 17 16 16 15 15 16
13 12 10 7 7 6 5 6 6 5 4 6 6 5 4 5 7 8 8 8 10 13 14 14 14 14 12 11 13 14 12 12 13 15 17 19 18 16 15 13 13 16
15 13 10 7 7 6 5 6 6 4 2 3 4 2 3 6 6 6 6 6 9 12 13 13 13 13 11 12 13 13 11 11 12 14 17 18 17 15 14 14 16 16
15 13 9 8 7 5 6 7 6 3 1 1 2 2 4 6 5 5 5 5 8 11 13 13 12 11 11 12 13 12 12 13 15 16 17 17 15 15 17 18 18 18
13 11 9 8 7 6 7 8 5 2 1 2 2 4 7 7 6 5 5 6 8 10 11 12 12 12 13 13 14 14 15 17 18 18 18 17 15 16 18 18 17 16
11 8 8 8 7 8 9 8 4 2 1 1 2 6 8 8 6 5 7 7 6 7 9 12 13 14 14 15 17 16 16 17 17 18 18 17 15 15 16 16 14 13
10 7 8 9 8 9 10 7 3 2 2 2 3 6 9 9 7 7 8 6 4 6 9 12 14 13 14 17 19 17 15 15 15 17 18 16 14 13 13 14 12 11
10 8 8 9 9 9 9 7 4 3 4 4 6 8 10 10 8 8 9 7 5 6 8 11 12 11 12 16 19 17 16 15 14 15 15 14 12 11 10 10 11 10
12 9 8 8 8 8 8 6 4 4 6 7 8 9 10 9 8 9 11 10 7 7 7 8 9 9 10 14 17 17 16 15 14 14 13 12 10 10 9 9 8 9
13 12 10 8 7 7 6 4 3 5 8 9 8 9 9 8 8 9 11 12 11 10 9 8 8 8 10 12 15 16 16 15 14 14 14 13 11 10 9 8 7 8
15 14 12 10 10 10 8 6 4 5 8 10 9 8 9 9 7 8 11 11 11 11 10 10 8 8 10 11 13 14 15 15 15 14 14 15 14 12 11 10 9 9
14 14 13 13 13 13 12 10 9 8 8 10 12 9 10 11 9 8 10 10 9 10 10 9 8 7 9 10 11 13 14 14 15 14 15 16 16 16 14 13 13 12
10 10 11 13 13 14 14 12 11 11 9 11 14 10 8 11 10 8 9 10 9 10 10 10 9 9 9 9 10 12 13 14 16 16 16 17 17 17 17 17 16 15
6 6 7 9 10 10 11 11 11 11 10 12 15 14 10 11 12 11 12 11 10 10 11 12 12 12 12 12 12 12 13 15 17 18 18 19 19 19 20 19 19 18
5 5 6 8 8 7 7 8 9 10 11 12 14 17 16 14 14 14 15 16 14 13 13 14 14 14 15 16 15 15 16 17 19 20 20 20 21 21 21 22 21 20
10 7 6 6 5 4 5 5 4 5 8 9 11 14 16 17 17 17 17 18 18 17 17 18 17 16 17 18 19 19 20 21 22 23 22 21 22 22 23 24 24 23
15 12 10 9 7 5 2 1 2 3 4 5 6 8 10 13 15 17 18 20 20 20 20 21 21 20 19 20 21 22 23 24 24 26 26 25 25 24 24 26 27 26
14 12 10 9 9 8 6 4 2 2 3 4 6 7 9 10 11 13 15 17 20 22 22 23 23 23 23 23 24 25 26 26 27 28 29 29 29 28 27 28 29 28
8 8 7 6 4 3 3 3 2 2 2 3 4 6 8 10 11 12 13 13 15 18 21 24 25 25 25 26 27 28 28 29 30 32 32 33 33 32 31 30 30 28
2 2 3 4 4 5 6 6 6 6 6 7 7 6 7 10 12 13 14 14 14 15 17 20 22 23 24 25 27 29 29 30 32 33 34 35 35 35 34 33 31 30
3 3 3 4 5 7 8 10 10 11 11 11 11 11 12 13 15 16 16 17 17 17 17 18 19 19 19 21 24 26 28 30 31 32 33 35 36 36 35 34 33 32
6 6 7 7 8 10 11 12 12 13 14 14 15 16 16 16 17 17 18 18 19 19 20 20 20 19 18 19 20 22 24 26 27 29 31 33 34 35 35 35 34 33
11 11 11 11 12 13 14 15 16 17 18 18 18 19 19 20 19 19 19 19 19 21 22 23 23 22 21 21 21 21 22 23 24 25 27 29 31 32 34 36 36 37
Wind_Direction
164 164 157 151 150 151 151 150 147 151 170 191 190 192 193 158 159 167 175 186 193 169 150 139 127 127 142 152 154 151 150 150 148 148 149 148 145 144 142 143 150 150
168 166 161 153 152 158 157 149 149 160 181 198 199 206 223 195 180 185 189 196 196 155 143 139 134 139 143 143 148 149 147 149 150 151 154 153 150 149 147 152 160 162
167 168 165 157 154 159 159 155 158 174 197 208 215 223 236 219 197 195 193 190 177 153 147 146 145 150 154 153 154 151 150 151 151 152 156 157 158 157 156 160 165 169
171 173 168 159 156 155 159 166 170 184 210 222 228 239 243 203 176 177 180 178 169 157 156 159 159 161 169 173 162 153 153 153 149 151 155 157 161 164 165 167 168 168
178 180 173 165 157 154 162 174 179 187 220 235 240 252 234 188 172 173 179 180 173 164 163 169 173 177 182 178 165 159 158 153 148 152 154 153 155 157 158 155 151 159
185 187 182 173 158 154 170 180 185 191 219 249 250 248 190 179 175 172 173 171 167 168 169 172 179 184 183 175 168 166 163 150 144 148 151 150 151 149 144 134 127 136
191 191 183 176 164 161 175 175 175 169 125 279 254 189 163 160 154 152 154 150 153 164 172 177 180 175 168 164 161 157 149 139 136 140 144 146 147 145 141 135 127 125
191 187 178 174 170 171 170 163 155 135 127 273 236 171 156 150 151 150 144 142 146 156 168 174 167 157 154 150 144 140 137 136 137 138 139 140 142 143 142 140 136 132
184 177 172 173 177 179 172 164 154 140 178 242 198 172 162 155 157 150 139 140 141 147 158 160 154 153 154 145 138 139 139 141 145 144 142 145 147 148 149 149 146 141
180 172 170 177 185 181 174 174 171 163 191 198 174 173 164 157 158 147 144 154 155 146 150 154 158 164 161 150 146 149 152 155 157 155 156 160 160 157 157 157 156 151
179 176 169 175 188 188 184 190 196 184 186 174 167 165 157 159 168 158 159 180 184 163 160 163 170 176 166 159 159 160 164 168 168 168 170 170 170 171 169 169 170 169
176 177 174 174 185 191 191 196 192 172 171 169 167 161 155 170 190 178 175 187 189 186 191 187 185 183 170 168 173 176 179 182 180 179 178 176 180 189 192 192 192 190
173 174 180 181 177 179 186 202 198 169 170 169 161 156 164 191 214 199 191 193 191 196 214 218 209 197 188 183 183 186 192 195 194 191 186 184 190 202 211 212 213 213
170 174 185 190 185 187 196 206 208 195 184 173 166 174 191 210 225 211 203 206 204 206 219 233 236 222 213 210 204 201 203 205 205 203 198 196 198 207 219 223 221 225
171 177 190 198 199 204 209 206 202 210 207 187 184 199 214 222 236 226 211 214 217 216 226 241 249 243 233 229 224 220 221 220 217 214 210 209 210 213 222 231 234 236
175 182 192 199 202 208 212 210 209 213 211 193 192 206 217 220 231 231 215 219 224 223 231 244 252 256 253 247 239 233 231 230 229 226 222 224 226 227 230 236 242 244
158 172 183 189 194 204 210 214 214 213 207 194 195 205 209 208 215 218 215 221 228 226 229 238 247 253 256 256 253 247 242 239 237 234 233 235 237 238 240 241 241 243
112 152 171 179 189 200 207 211 212 214 216 210 206 210 213 215 219 223 221 220 222 222 226 231 237 241 245 248 248 246 248 250 248 243 242 242 243 243 243 242 241 242
94 110 134 153 171 190 202 208 214 224 229 227 222 222 226 230 233 235 234 231 228 227 228 229 229 232 238 240 239 239 244 250 252 252 252 253 252 250 247 244 244 244
97 97 104 109 104 104 111 34 359 332 296 273 265 262 255 249 247 246 244 241 240 239 237 234 231 233 238 238 236 237 239 243 249 253 256 258 257 255 253 250 248 247
105 102 103 106 105 108 112 101 62 342 330 319 309 304 291 275 266 261 256 251 249 249 247 244 239 238 240 241 241 240 238 238 243 248 250 253 253 250 247 246 244 244
112 118 120 120 125 141 153 159 205 241 250 270 293 305 300 291 283 275 270 264 259 256 254 253 249 246 246 246 246 246 245 245 247 250 251 251 251 251 251 251 248 243
83 132 154 160 180 206 216 223 237 242 244 252 259 268 282 287 288 287 285 279 273 269 265 261 258 256 253 252 251 251 252 253 254 255 254 253 253 255 257 256 251 244
328 300 266 243 238 235 232 235 240 244 248 255 260 264 270 274 278 282 285 284 282 280 277 274 271 267 262 257 255 254 255 256 257 258 256 253 251 253 254 253 248 244
298 290 280 273 270 267 264 263 262 260 259 259 261 264 267 268 269 272 275 280 281 281 281 280 277 273 269 265 263 260 257 256 257 258 257 252 250 250 251 249 247 244
296 293 287 281 275 273 273 273 273 273 272 269 267 266 265 263 263 264 266 269 272 274 276 278 277 275 274 274 274 270 264 259 256 257 257 255 253 252 250 247 246 245